Grosse Ile, MI

8:10 AM EST on January 23, 2018 (GMT -0500)
Grosse Ile Municipal

Weather History for KONZ - March, 2014

Change the Weather History Date:

Friday, March 21, 2014

  Actual Average (KDTW) Record (KDTW)
Temperature  
Mean Temperature 31 °F -  
Max Temperature 39 °F 46 °F 84 °F (2012)
Min Temperature 23 °F 28 °F -1 °F (1885)
Degree Days  
Heating Degree Days 34    
Moisture  
Dew Point 24 °F    
Average Humidity 72    
Maximum Humidity 86    
Minimum Humidity 52    
Precipitation  
Precipitation 0.00 in - - ()
Sea Level Pressure  
Sea Level Pressure 29.98 in    
Wind  
Wind Speed 4 mph (ESE)    
Max Wind Speed 13 mph    
Max Gust Speed 16 mph    
Visibility 10 miles    
Events      
Averages and records for this station are not official NWS values.
T = Trace of Precipitation, MM = Missing Value Source: NWS Daily Summary

Daily Weather History Graph

Daily Weather History Graph

Search for Another Location

Airport or City:

Trip Planner

Search our weather history database for the weather conditions in past years. The results will help you decide how hot, cold, wet, or windy it might be!

Date:

Astronomy

Mar. 21, 2014 Rise Set
Actual Time 7:34 AM EDT 7:45 PM EDT
Civil Twilight 7:06 AM EDT 8:13 PM EDT
Nautical Twilight 6:33 AM EDT 8:46 PM EDT
Astronomical Twilight 6:00 AM EDT 9:20 PM EDT
Moon 12:08 AM EDT (3/21) 10:20 AM EDT (3/21)
Length of Visible Light 13h 07m
Length of Day
12h 11m
Waning Gibbous, 75% of the Moon is Illuminated
Mar 21
Waning Gibbous
Mar 23
Last Quarter
Mar 30
New
Apr 7
First Quarter
Apr 15
Full

Hourly Weather History & Observations

Time (EDT) Temp. Windchill Dew Point Humidity Pressure Visibility Wind Dir Wind Speed Gust Speed Precip Events Conditions
12:14 AM 30.2 °F 26.7 °F 19.4 °F 64% 30.04 in 10.0 mi WNW 3.5 mph - N/A   Clear
12:34 AM 30.2 °F 26.7 °F 19.4 °F 64% 30.05 in 10.0 mi West 3.5 mph - N/A   Clear
12:54 AM 30.2 °F - 19.4 °F 64% 30.05 in 10.0 mi Calm Calm - N/A   Clear
1:14 AM 30.2 °F 26.7 °F 19.4 °F 64% 30.05 in 10.0 mi West 3.5 mph - N/A   Clear
1:34 AM 30.2 °F - 19.4 °F 64% 30.05 in 10.0 mi Calm Calm - N/A   Clear
1:54 AM 30.2 °F - 19.4 °F 64% 30.06 in 10.0 mi Calm Calm - N/A   Clear
2:14 AM 30.2 °F 26.7 °F 21.2 °F 69% 30.06 in 10.0 mi West 3.5 mph - N/A   Clear
2:34 AM 28.4 °F 23.3 °F 21.2 °F 74% 30.06 in 10.0 mi NW 4.6 mph - N/A   Clear
2:54 AM 26.6 °F - 21.2 °F 80% 30.05 in 10.0 mi Calm Calm - N/A   Clear
3:14 AM 28.4 °F - 21.2 °F 74% 30.05 in 10.0 mi Calm Calm - N/A   Clear
3:34 AM 26.6 °F - 21.2 °F 80% 30.04 in 10.0 mi Calm Calm - N/A   Clear
3:54 AM 26.6 °F - 21.2 °F 80% 30.04 in 10.0 mi Calm Calm - N/A   Clear
4:14 AM 26.6 °F 21.2 °F 19.4 °F 74% 30.03 in 10.0 mi North 4.6 mph - N/A   Clear
4:34 AM 26.6 °F 22.6 °F 19.4 °F 74% 30.04 in 10.0 mi NW 3.5 mph - N/A   Clear
4:54 AM 26.6 °F 22.6 °F 21.2 °F 80% 30.04 in 10.0 mi West 3.5 mph - N/A   Clear
5:14 AM 26.6 °F 22.6 °F 19.4 °F 74% 30.05 in 10.0 mi West 3.5 mph - N/A   Clear
5:34 AM 24.8 °F - 19.4 °F 80% 30.05 in 10.0 mi Calm Calm - N/A   Clear
5:54 AM 24.8 °F - 19.4 °F 80% 30.05 in 10.0 mi Calm Calm - N/A   Clear
6:14 AM 24.8 °F - 19.4 °F 80% 30.05 in 10.0 mi Calm Calm - N/A   Clear
6:34 AM 24.8 °F - 19.4 °F 80% 30.05 in 10.0 mi Calm Calm - N/A   Clear
6:54 AM 24.8 °F - 21.2 °F 86% 30.05 in 10.0 mi Calm Calm - N/A   Clear
7:14 AM 24.8 °F - 21.2 °F 86% 30.05 in 10.0 mi Calm Calm - N/A   Clear
7:34 AM 24.8 °F - 19.4 °F 80% 30.05 in 10.0 mi Calm Calm - N/A   Clear
7:54 AM 24.8 °F - 19.4 °F 80% 30.05 in 10.0 mi Calm Calm - N/A   Clear
8:14 AM 23.0 °F - 19.4 °F 86% 30.06 in 10.0 mi Calm Calm - N/A   Clear
8:34 AM 26.6 °F - 21.2 °F 80% 30.07 in 10.0 mi Calm Calm - N/A   Clear
8:54 AM 28.4 °F - 23.0 °F 80% 30.07 in 10.0 mi Calm Calm - N/A   Clear
9:14 AM 30.2 °F - 24.8 °F 80% 30.06 in 10.0 mi Calm Calm - N/A   Clear
9:34 AM 32.0 °F 28.7 °F 23.0 °F 69% 30.08 in 10.0 mi East 3.5 mph - N/A   Clear
9:54 AM 33.8 °F 29.6 °F 24.8 °F 70% 30.08 in 10.0 mi East 4.6 mph - N/A   Clear
10:14 AM 33.8 °F 29.6 °F 21.2 °F 60% 30.08 in 10.0 mi East 4.6 mph - N/A   Clear
10:34 AM 35.6 °F 30.7 °F 21.2 °F 56% 30.08 in 10.0 mi ESE 5.8 mph - N/A   Clear
10:54 AM 35.6 °F 29.2 °F 21.2 °F 56% 30.08 in 10.0 mi ESE 8.1 mph - N/A   Clear
11:14 AM 37.4 °F 32.1 °F 21.2 °F 52% 30.07 in 10.0 mi SE 6.9 mph - N/A   Clear
11:34 AM 33.8 °F 25.3 °F 26.6 °F 75% 30.07 in 10.0 mi South 11.5 mph - N/A   Clear
11:54 AM 35.6 °F 29.9 °F 26.6 °F 70% 30.06 in 10.0 mi SSE 6.9 mph - N/A   Clear
12:14 PM 35.6 °F 28.6 °F 24.8 °F 65% 30.07 in 10.0 mi SSE 9.2 mph - N/A   Clear
12:34 PM 35.6 °F 29.2 °F 24.8 °F 65% 30.07 in 10.0 mi SSE 8.1 mph - N/A   Clear
12:54 PM 35.6 °F 28.6 °F 24.8 °F 65% 30.06 in 10.0 mi SSE 9.2 mph - N/A   Clear
1:14 PM 35.6 °F 28.0 °F 24.8 °F 65% 30.05 in 10.0 mi SSE 10.4 mph - N/A   Clear
1:34 PM 35.6 °F 29.2 °F 26.6 °F 70% 30.05 in 10.0 mi SSE 8.1 mph - N/A   Clear
1:54 PM 35.6 °F 28.6 °F 24.8 °F 65% 30.04 in 10.0 mi SSE 9.2 mph - N/A   Clear
2:14 PM 37.4 °F 31.4 °F 26.6 °F 65% 30.03 in 10.0 mi South 8.1 mph - N/A   Clear
2:34 PM 35.6 °F 29.9 °F 26.6 °F 70% 30.02 in 10.0 mi SSE 6.9 mph - N/A   Scattered Clouds
2:53 PM 37.4 °F 31.4 °F 26.6 °F 65% 30.01 in 10.0 mi SSE 8.1 mph - N/A   Scattered Clouds
3:14 PM 37.4 °F 31.4 °F 26.6 °F 65% 30.00 in 10.0 mi SE 8.1 mph - N/A   Clear
3:34 PM 37.4 °F 32.1 °F 28.4 °F 70% 29.99 in 10.0 mi SSE 6.9 mph - N/A   Clear
3:54 PM 35.6 °F 29.2 °F 28.4 °F 75% 29.99 in 10.0 mi SSE 8.1 mph - N/A   Clear
4:14 PM 37.4 °F 30.8 °F 28.4 °F 70% 29.97 in 10.0 mi SSE 9.2 mph - N/A   Clear
4:34 PM 39.2 °F 33.6 °F 28.4 °F 65% 29.94 in 10.0 mi SE 8.1 mph - N/A   Clear
4:54 PM 39.2 °F 31.6 °F 26.6 °F 61% 29.92 in 10.0 mi ESE 12.7 mph - N/A   Clear
5:14 PM 39.2 °F 34.2 °F 26.6 °F 61% 29.93 in 10.0 mi ESE 6.9 mph - N/A   Clear
5:34 PM 37.4 °F 32.1 °F 26.6 °F 65% 29.94 in 10.0 mi South 6.9 mph - N/A   Clear
5:54 PM 37.4 °F 33.8 °F 26.6 °F 65% 29.94 in 10.0 mi ESE 4.6 mph - N/A   Clear
6:14 PM 37.4 °F 33.8 °F 26.6 °F 65% 29.92 in 10.0 mi East 4.6 mph - N/A   Clear
6:34 PM 35.6 °F 29.9 °F 28.4 °F 75% 29.90 in 10.0 mi East 6.9 mph - N/A   Clear
6:54 PM 37.4 °F 32.1 °F 28.4 °F 70% 29.88 in 10.0 mi East 6.9 mph - N/A   Clear
7:14 PM 35.6 °F 28.0 °F 28.4 °F 75% 29.87 in 10.0 mi East 10.4 mph - N/A   Clear
7:34 PM 35.6 °F 28.6 °F 28.4 °F 75% 29.85 in 10.0 mi East 9.2 mph - N/A   Clear
7:54 PM 35.6 °F 29.9 °F 28.4 °F 75% 29.85 in 10.0 mi East 6.9 mph - N/A   Clear
8:14 PM 35.6 °F 29.2 °F 28.4 °F 75% 29.84 in 10.0 mi East 8.1 mph - N/A   Clear
8:33 PM 33.8 °F 27.7 °F 26.6 °F 75% 29.84 in 10.0 mi East 6.9 mph - N/A   Clear
8:54 PM 33.8 °F 27.0 °F 26.6 °F 75% 29.82 in 10.0 mi East 8.1 mph - N/A   Clear
9:14 PM 33.8 °F 28.6 °F 26.6 °F 75% 29.81 in 10.0 mi East 5.8 mph - N/A   Scattered Clouds
9:34 PM 33.8 °F 28.6 °F 26.6 °F 75% 29.81 in 10.0 mi East 5.8 mph - N/A   Mostly Cloudy
9:54 PM 33.8 °F 28.6 °F 26.6 °F 75% 29.81 in 10.0 mi East 5.8 mph - N/A   Overcast
10:14 PM 33.8 °F 27.0 °F 26.6 °F 75% 29.77 in 10.0 mi East 8.1 mph - N/A   Overcast
10:34 PM 35.6 °F 28.6 °F 26.6 °F 70% 29.74 in 10.0 mi ENE 9.2 mph - N/A   Mostly Cloudy
10:54 PM 35.6 °F 28.6 °F 28.4 °F 75% 29.72 in 10.0 mi East 9.2 mph 16.1 mph N/A   Overcast
11:14 PM 35.6 °F 29.9 °F 28.4 °F 75% 29.70 in 10.0 mi East 6.9 mph - N/A   Overcast
11:34 PM 37.4 °F 31.4 °F 30.2 °F 75% 29.69 in 10.0 mi East 8.1 mph - N/A   Overcast
11:54 PM 37.4 °F 33.8 °F 30.2 °F 75% 29.68 in 10.0 mi ENE 4.6 mph - N/A   Overcast